Location: Audinghen
(50.8518°N, 1.6129°E)
Time: 08:25:52
(UTC+00:00)

Cosmos 2344 - Pass Details

Date: 07 August 2020
Orbit: 1247 x 2995 km, 63.3° (Epoch: 26 September)

Event Time Altitude Azimuth Distance (km) Brightness Sun altitude
Rises 01:42:05 0° 316° (NW) 4,594 6.8 -19.1°
Reaches altitude 10° 01:44:44 10° 313° (NW) 3,754 6.2 -19.0°
Maximum altitude 01:54:02 65° 235° (SW) 2,077 4.4 -18.3°
Drops below altitude 10° 02:06:57 10° 158° (SSE) 5,091 6.4 -17.2°
Sets 02:11:11 0° 156° (SSE) 6,317 6.9 -16.9°
